This demonstration page uses our WeatherBlox Daily Observations layout. Learn more.

Left ArrowRight Arrow

38.20091, -84.87328

Hourly Observations for December 4, 2022

Temp ( °F °C ) Dew Point ( °F °C ) Humidity (%) Winds ( mph kmh ) Pressure ( in mb ) Visibility ( mi km ) Precip ( " mm )
12:53 am 00:53 Clear 29 -1.7 23 -5 78 78 N 3 6 30.42 1030 10 16 0.00 0.00
1:53 am 01:53 Clear 29 -1.7 22 -5.6 75 75 Calm 30.41 1030 10 16 0.00 0.00
2:53 am 02:53 Clear 26 -3.3 21 -6.1 81 81 N 3 6 30.41 1030 10 16 0.00 0.00
3:53 am 03:53 Clear 26 -3.3 20 -6.7 77 77 Calm 30.39 1029 10 16 0.00 0.00
4:53 am 04:53 Clear 27 -2.8 20 -6.7 74 74 Calm 30.37 1029 10 16 0.00 0.00
5:53 am 05:53 Clear 24 -4.4 19 -7.2 81 81 Calm 30.38 1029 10 16 0.00 0.00
6:53 am 06:53 Clear 25 -3.9 19 -7.2 78 78 SE 6 9 30.37 1028 10 16 0.00 0.00
7:53 am 07:53 Sunny 26 -3.3 19 -7.2 74 74 SSE 3 6 30.36 1028 10 16 0.00 0.00
8:53 am 08:53 Sunny 26 -3.3 21 -6.1 81 81 NNW 5 7 30.37 1028 10 16 0.00 0.00
9:53 am 09:53 Sunny 29 -1.7 22 -5.6 75 75 Calm 30.37 1028 10 16 0.00 0.00
10:53 am 10:53 Sunny 33 0.6 22 -5.6 63 63 N 3 6 30.37 1028 10 16 0.00 0.00
11:53 am 11:53 Sunny 37 2.8 24 -4.4 59 59 Calm 30.35 1028 10 16 0.00 0.00
12:53 pm 12:53 Sunny 39 3.9 21 -6.1 48 48 Calm 30.31 1026 10 16 0.00 0.00
1:53 pm 13:53 Sunny 42 5.6 21 -6.1 43 43 VRB 6 9 30.24 1024 10 16 0.00 0.00
2:53 pm 14:53 Sunny 44 6.7 22 -5.6 41 41 Calm 30.23 1024 10 16 0.00 0.00
3:53 pm 15:53 Sunny 44 6.7 23 -5 43 43 S 6 9 30.22 1023 10 16 0.00 0.00
4:53 pm 16:53 Sunny 40 4.4 24 -4.4 53 53 S 6 9 30.22 1023 10 16 0.00 0.00
5:53 pm 17:53 Clear 34 1.1 24 -4.4 67 67 Calm 30.23 1024 10 16 0.00 0.00
6:53 pm 18:53 Clear 31 -0.6 24 -4.4 75 75 Calm 30.22 1023 10 16 0.00 0.00
7:53 pm 19:53 Clear 29 -1.7 23 -5 78 78 Calm 30.21 1023 10 16 0.00 0.00
8:53 pm 20:53 Clear 25 -3.9 22 -5.6 88 88 Calm 30.21 1023 10 16 0.00 0.00
9:53 pm 21:53 Clear 24 -4.4 20 -6.7 84 84 Calm 30.19 1022 10 16 0.00 0.00
10:53 pm 22:53 Clear 25 -3.9 21 -6.1 85 85 Calm 30.17 1022 10 16 0.00 0.00
11:53 pm 23:53 Clear 24 -4.4 21 -6.1 88 88 Calm 30.17 1022 10 16 0.00 0.00

Powered by AerisWeather